MET3421 - Oklahoma City to Kansas City

Bombardier Dash-8-Q400
857AG
1 hr 00 mins
272 nm
Scheduled - Daily

Bid/PiRep Status

Bid was submitted on November 1st, 2016 5:35 UTC.
PiRep # 73876: Approved by Dave Nichols on November 2nd, 2016 4:08 UTC

Departure

Departing from
Oklahoma City (OKC)
Departure gate
8
Scheduled Departure
GMT 1235
Local 0735
METAR KOKC 191752Z 25007KT 10SM SCT250 13/M04 A3032 RMK AO2 SLP269 T01331044 10133 21017 58011
TAF KOKC 191737Z 1918/2018 20007KT P6SM FEW300 FM201500 19014G20KT P6SM SCT250

Route Map

Planning Resources

KOKC,IRW,TUL,DOSOA,KMCI
KOKC VIA IRW IBAPE PER EMP JHAWK HOOZE RUGB NOHS KMCI
KOKC ICT UTEKE KMCI
LOKC DCT CNU STAR KMCI
KOKC-PER-EMP-TOP-KMCI
Route:
OFP Layout:
Units:
Detailed Navlog:
ETOPS Planning:
Plan Stepclimbs:
Runway Analysis:
Include NOTAMS:
FIR NOTAMS:
Flight Maps:

Popularity

Hub Current Bids PiReps this month Total PiReps
KLAX 0 0 1
KBOS 0 0 0
KDFW 0 0 0